Weather History for Santiago, Dominican Republic

Change the Weather History Date:

Saturday, November 10, 2012

  Actual Average Record
Temperature  
Mean Temperature 75 °F -  
Max Temperature 81 °F 86 °F 91 °F (2002)
Min Temperature 69 °F 67 °F 68 °F (2007)
Cooling Degree Days 10    
Growing Degree Days 25 (Base 50)    
Moisture  
Dew Point 72 °F    
Average Humidity 89    
Maximum Humidity 100    
Minimum Humidity 66    
Precipitation  
Precipitation 0.08 in 0.14 in - ()
Sea Level Pressure  
Sea Level Pressure 29.98 in    
Wind  
Wind Speed 4 mph ()    
Max Wind Speed 9 mph    
Max Gust Speed -    
Visibility 5.9 miles    
Events Rain , Thunderstorm    
Averages and records for this station are not official NWS values.
T = Trace of Precipitation, MM = Missing Value Source: Averaged Metar Reports

Daily Weather History Graph

Daily Weather History Graph

Search for Another Location

Airport:

Trip Planner

Search our weather history database for the weather conditions in past years. The results will help you decide how hot, cold, wet, or windy it might be!

Date:

Astronomy

Nov. 10, 2012 Rise Set
Actual Time 6:47 AM AST 6:04 PM AST
Civil Twilight 6:24 AM AST 6:27 PM AST
Nautical Twilight 5:58 AM AST 6:54 PM AST
Astronomical Twilight 5:32 AM AST 7:20 PM AST
Moon 3:16 AM AST (11/10) 3:27 PM AST (11/10)
Length of Visible Light 12h 02m
Length of Day
11h 16m
Waning Crescent, 15% of the Moon is Illuminated
Nov 10
Waning Crescent
Nov 13
New
Nov 20
First Quarter
Nov 28
Full
Dec 6
Last Quarter

Hourly Weather History & Observations

Time (AST) Temp. Heat Index Dew Point Humidity Pressure Visibility Wind Dir Wind Speed Gust Speed Precip Events Conditions
12:00 AM 73.4 °F - 71.6 °F 94% 29.98 in 6.2 mi NW 6.9 mph - N/A   Mostly Cloudy
1:00 AM 71.6 °F - 71.6 °F 100% 29.95 in 6.2 mi NW 5.8 mph - N/A   Mostly Cloudy
2:00 AM 72 °F - 71 °F 97% 29.95 in 7 mi West 4.5 mph - -   Haze
2:00 AM 71.6 °F - 71.6 °F 100% 29.95 in 6.2 mi West 4.6 mph - N/A   Mostly Cloudy
3:00 AM 71.6 °F - 71.6 °F 100% 29.92 in 6.2 mi Calm Calm - N/A   Mostly Cloudy
4:00 AM 71.6 °F - 71.6 °F 100% 29.92 in 6.2 mi Calm Calm - N/A   Mostly Cloudy
5:00 AM 71 °F - 70 °F 97% 29.92 in 7 mi NNW 6.7 mph - -   Haze
5:00 AM 71.6 °F - 69.8 °F 94% 29.92 in 6.2 mi NNW 4.6 mph - N/A   Scattered Clouds
6:00 AM 69.8 °F - 69.8 °F 100% 29.92 in 6.2 mi Calm Calm - N/A Thunderstorm Thunderstorm
7:00 AM 71.6 °F - 69.8 °F 94% 29.95 in 5.0 mi Calm Calm - N/A   Mostly Cloudy
8:00 AM 72 °F - 71 °F 97% 29.98 in 5 mi 4.5 mph - -   Mostly Cloudy
8:00 AM 71.6 °F - 71.6 °F 100% 29.98 in 5.0 mi Variable 3.5 mph - N/A   Mostly Cloudy
9:00 AM 73.4 °F - 73.4 °F 100% 30.01 in 6.2 mi South 5.8 mph - N/A   Overcast
10:00 AM 77.0 °F - 73.4 °F 89% 30.04 in 6.2 mi SSE 6.9 mph - N/A   Overcast
11:00 AM 77 °F - 72 °F 80% 30.06 in 6 mi South 6.7 mph - -   Haze
11:00 AM 77.0 °F - 71.6 °F 83% 30.04 in 6.2 mi South 6.9 mph - N/A   Overcast
12:00 PM 78.8 °F - 73.4 °F 83% 30.01 in 6.2 mi NNW 4.6 mph - N/A   Mostly Cloudy
1:00 PM 78.8 °F - 73.4 °F 83% 30.01 in 5.0 mi NW 4.6 mph - N/A Rain Light Rain
2:00 PM 79 °F - 72 °F 72% 29.98 in 6 mi Calm Calm - -   Haze
2:00 PM 78.8 °F - 71.6 °F 78% 29.98 in 6.2 mi Calm Calm - N/A   Mostly Cloudy
3:00 PM 80.6 °F 84.6 °F 71.6 °F 74% 29.95 in 6.2 mi WSW 5.8 mph - N/A   Mostly Cloudy
4:00 PM 80.6 °F 84.6 °F 71.6 °F 74% 29.95 in 6.2 mi West 4.6 mph - N/A   Scattered Clouds
5:00 PM 80 °F - 71 °F 66% 29.96 in 6 mi ENE 8.9 mph - -   Haze
5:00 PM 80.6 °F 83.9 °F 69.8 °F 70% 29.95 in 6.2 mi ENE 8.1 mph - N/A   Scattered Clouds
6:00 PM 78.8 °F - 69.8 °F 74% 29.98 in 6.2 mi Calm Calm - N/A   Scattered Clouds
7:00 PM 75.2 °F - 71.6 °F 89% 29.98 in 5.0 mi NNW 4.6 mph - N/A Rain Light Rain
8:00 PM 75.2 °F - 73.4 °F 94% 29.98 in 6.2 mi West 4.6 mph - N/A   Scattered Clouds
9:00 PM 73.4 °F - 73.4 °F 100% 30.01 in 5.0 mi WNW 4.6 mph - N/A Rain Rain
10:00 PM 73.4 °F - 71.6 °F 94% 30.04 in 3.1 mi West 5.8 mph - N/A Rain Rain
11:00 PM 71.6 °F - 69.8 °F 94% 30.04 in - WSW 4.6 mph - N/A Rain Light Rain